Details From YBBN - Brisbane Intl
To YBRK - Rockhampton
Flight Number -
Tags decoded
Created
Modified
Stats Distance 280 nm / 519 km
Max Altitude 0 ft / 0 m
Waypoints 3
Social Downloads 56
Likes 0
Share

Download

Looking for another format? Having issues loading an existing format? Contact us
Advertisement - Login to hide

Notes

Requested: YBBN BN V308 RK YBRK

Route

YBBN RK YBRK

ID Type Via Altitude (ft/m) Position (lat/lon) Dist (leg/tot) Name
O YBBN APT - 0 / 0 -27.37580 / 153.12800 - / 0 nm Brisbane Intl
RK VOR - 0 / 0 -23.38280 / 150.47200 279 / 279 nm ROCKHAMPTON
O YBRK APT - 0 / 0 -23.37880 / 150.47300 0 / 280 nm Rockhampton

Altitude Profile

Advertisement - Login to hide

Weather


0- 5 10 15 20 25 30 35+ Temperature / °C

Clouds and Precipitation
Forecast for 2020-10-31 12:00 UTC. Updated 6 hours ago

Ground ~20,000 ft ~40,000 ft Winds

YBBN

Details ICAO YBBN (BNE)
Name Brisbane Intl
Region Australia
Timezone Australia/Brisbane (UTC+10.0)
Stats Elevation 15 ft / 5 m (AMSL)
Location -27.375800° 153.128000°
Runways 2
Magnetic Variation 10.999° E

METAR

YBBN 311500Z 05004KT CAVOK 17/16 Q1011 NOSIG

Decode

TAF

TAF YBBN 311102Z 3112/0118 35014KT 9999 -SHRA SCT040 FM311300 34010KT 9999 NSW FEW010 FM312000 25012KT CAVOK FM010500 02012KT CAVOK FM011200 17008KT 9999 FEW025

Decode

Departure Runways

ID Width Length Bearing (true/mag) Surface Threshold Overrun Markings Lighting
01 148 ft / 45 m 11,744 ft / 3,580 m 26.93° / 15.93° ASPHALT 213 ft / 65 m 0 ft / 0 m PREC-APP CENTERLINE EDGE THRESHOLD CALVERT REIL-OMNI
14 98 ft / 30 m 5,787 ft / 1,764 m 145.66° / 134.67° ASPHALT 197 ft / 60 m 0 ft / 0 m PREC-APP EDGE THRESHOLD
19 148 ft / 45 m 11,744 ft / 3,580 m 206.92° / 195.93° ASPHALT 0 ft / 0 m 0 ft / 0 m PREC-APP CENTERLINE EDGE THRESHOLD CALVERT TDZ REIL-OMNI
32 98 ft / 30 m 5,787 ft / 1,764 m 325.66° / 314.66° ASPHALT 197 ft / 60 m 0 ft / 0 m PREC-APP EDGE THRESHOLD

YBRK

Details ICAO YBRK (ROK)
Name Rockhampton
Region Australia
Timezone Australia/Brisbane (UTC+10.0)
Stats Elevation 34 ft / 10 m (AMSL)
Location -23.378800° 150.473000°
Runways 2
Magnetic Variation 9.183° E

METAR

YBRK 311500Z AUTO 00000KT 9999 // NCD 23/20 Q1012

Decode

TAF

TAF AMD YBRK 311449Z 3114/0112 VRB04KT 9999 SCT012 BKN020 FM312200 VRB04KT 9999 SCT040 FM010100 VRB04KT CAVOK TEMPO 3116/3122 9999 BKN012

Decode

Destination Runways

ID Width Length Bearing (true/mag) Surface Threshold Overrun Markings Lighting
04 102 ft / 31 m 5,395 ft / 1,644 m 52.34° / 43.16° ASPHALT 0 ft / 0 m 20 ft / 6 m APP EDGE THRESHOLD
15 148 ft / 45 m 8,649 ft / 2,636 m 157.80° / 148.62° ASPHALT 0 ft / 0 m 0 ft / 0 m APP EDGE THRESHOLD
22 102 ft / 31 m 5,395 ft / 1,644 m 232.34° / 223.15° ASPHALT 0 ft / 0 m 0 ft / 0 m APP EDGE THRESHOLD
33 148 ft / 45 m 8,649 ft / 2,636 m 337.80° / 328.61° ASPHALT 0 ft / 0 m 0 ft / 0 m APP EDGE THRESHOLD

Popular Alternatives